LAN1446 SCEL-SEGU

Flight info

Callsign LAN1446
Flight time 4h 48m
Altitude 32000
Route DONTI5B DONTI UL780 MOXES/N0470F340 UL780 EVRED EVRED2
Aircraft A320/M-SDE2E3FGHIRWXY/LB1

Departure

Time 2026-04-18 06:59
Airport Comodoro Arturo Merino Benítez International Airport (SCEL)

Arrival

Time 2026-04-18 11:48
Airport José Joaquín de Olmedo International Airport (SEGU)
Time Latitude Longitude Altitude Speed Heading
2026-04-18 06:47 -33.40046 -70.78979 1563 ft 0 kts 359°
2026-04-18 06:49 -33.40052 -70.78979 1563 ft 2 kts 359°
2026-04-18 06:49 -33.40067 -70.78979 1563 ft 2 kts 359°
2026-04-18 06:50 -33.40082 -70.78979 1563 ft 2 kts 359°
2026-04-18 06:50 -33.40097 -70.78979 1563 ft 2 kts 359°
2026-04-18 06:50 -33.40108 -70.78978 1563 ft 0 kts 11°
2026-04-18 06:50 -33.40114 -70.78982 1563 ft 0 kts 71°
2026-04-18 06:51 -33.40114 -70.78989 1563 ft 0 kts 91°
2026-04-18 06:51 -33.40114 -70.78992 1563 ft 0 kts 87°
2026-04-18 06:53 -33.40114 -70.78982 1563 ft 3 kts 85°
2026-04-18 06:53 -33.40109 -70.78925 1563 ft 9 kts 87°
2026-04-18 06:53 -33.40106 -70.78850 1563 ft 8 kts 87°
2026-04-18 06:53 -33.40096 -70.78777 1563 ft 9 kts 58°
2026-04-18 06:54 -33.40030 -70.78758 1563 ft 11 kts 359°
2026-04-18 06:54 -33.39932 -70.78762 1563 ft 16 kts 359°
2026-04-18 06:54 -33.39800 -70.78767 1563 ft 21 kts 358°
2026-04-18 06:54 -33.39649 -70.78774 1563 ft 22 kts 358°
2026-04-18 06:55 -33.39493 -70.78780 1563 ft 22 kts 359°
2026-04-18 06:55 -33.39336 -70.78785 1563 ft 21 kts 357°
2026-04-18 06:55 -33.39190 -70.78793 1563 ft 20 kts 358°
2026-04-18 06:55 -33.39053 -70.78799 1563 ft 19 kts 358°
2026-04-18 06:56 -33.38924 -70.78803 1563 ft 17 kts 358°
2026-04-18 06:56 -33.38805 -70.78808 1563 ft 16 kts 358°
2026-04-18 06:56 -33.38694 -70.78812 1563 ft 15 kts 357°
2026-04-18 06:56 -33.38583 -70.78819 1563 ft 18 kts 358°
2026-04-18 06:57 -33.38441 -70.78824 1563 ft 22 kts 359°
2026-04-18 06:57 -33.38065 -70.78841 1563 ft 31 kts 358°
2026-04-18 06:57 -33.37851 -70.78848 1563 ft 29 kts 358°
2026-04-18 06:58 -33.37651 -70.78857 1563 ft 28 kts 359°
2026-04-18 06:58 -33.37551 -70.78735 1563 ft 22 kts 99°
2026-04-18 06:58 -33.37672 -70.78667 1563 ft 20 kts 179°
2026-04-18 06:58 -33.37903 -70.78655 1563 ft 61 kts 177°
2026-04-18 06:59 -33.38554 -70.78619 1563 ft 123 kts 177°
2026-04-18 06:59 -33.39590 -70.78565 1563 ft 174 kts 177°
2026-04-18 06:59 -33.40893 -70.78498 1954 ft 188 kts 178°
2026-04-18 06:59 -33.42146 -70.78487 2751 ft 182 kts 180°
2026-04-18 07:00 -33.43501 -70.78547 2938 ft 203 kts 183°
2026-04-18 07:00 -33.44915 -70.78682 3376 ft 208 kts 183°
2026-04-18 07:00 -33.46445 -70.78534 3539 ft 231 kts 169°
2026-04-18 07:00 -33.48096 -70.78196 3847 ft 248 kts 172°
2026-04-18 07:01 -33.49853 -70.78010 4271 ft 261 kts 181°
2026-04-18 07:01 -33.51659 -70.78572 4631 ft 274 kts 212°
2026-04-18 07:01 -33.53059 -70.80083 5173 ft 278 kts 236°
2026-04-18 07:01 -33.53925 -70.82148 5818 ft 278 kts 254°
2026-04-18 07:02 -33.54304 -70.84404 6441 ft 278 kts 270°
2026-04-18 07:02 -33.53955 -70.86645 7082 ft 274 kts 298°
2026-04-18 07:02 -33.52969 -70.88548 7867 ft 268 kts 307°
2026-04-18 07:02 -33.51901 -70.90353 8549 ft 266 kts 308°
2026-04-18 07:03 -33.50836 -70.92178 8977 ft 270 kts 307°
2026-04-18 07:03 -33.49777 -70.94041 9030 ft 270 kts 307°
2026-04-18 07:03 -33.48736 -70.95904 9033 ft 267 kts 307°
2026-04-18 07:03 -33.47676 -70.97683 9024 ft 264 kts 313°
2026-04-18 07:04 -33.46253 -70.99088 9073 ft 271 kts 335°
2026-04-18 07:04 -33.44495 -70.99823 9890 ft 263 kts 343°
2026-04-18 07:04 -33.42744 -71.00427 10352 ft 271 kts 342°
2026-04-18 07:04 -33.40873 -71.01111 10641 ft 285 kts 341°
2026-04-18 07:05 -33.38953 -71.01849 11048 ft 296 kts 341°
2026-04-18 07:05 -33.36991 -71.02619 11577 ft 301 kts 340°
2026-04-18 07:05 -33.34987 -71.03408 12259 ft 301 kts 340°
2026-04-18 07:05 -33.32995 -71.04189 12837 ft 304 kts 340°
2026-04-18 07:06 -33.30991 -71.04973 13495 ft 305 kts 340°
2026-04-18 07:06 -33.28972 -71.05763 14092 ft 308 kts 339°
2026-04-18 07:06 -33.26929 -71.06560 14640 ft 313 kts 338°
2026-04-18 07:06 -33.24827 -71.07381 15194 ft 317 kts 338°
2026-04-18 07:07 -33.22727 -71.08202 15741 ft 321 kts 338°
2026-04-18 07:07 -33.20606 -71.09032 16303 ft 323 kts 338°
2026-04-18 07:07 -33.18467 -71.09867 16827 ft 327 kts 337°
2026-04-18 07:07 -33.16292 -71.10716 17332 ft 331 kts 337°
2026-04-18 07:08 -33.14091 -71.11573 17788 ft 336 kts 336°
2026-04-18 07:08 -33.11853 -71.12444 18284 ft 340 kts 336°
2026-04-18 07:08 -33.09588 -71.13322 18881 ft 340 kts 336°
2026-04-18 07:08 -33.07343 -71.14195 19352 ft 343 kts 336°
2026-04-18 07:09 -33.05055 -71.15087 19774 ft 348 kts 336°
2026-04-18 07:09 -33.02840 -71.15948 20279 ft 349 kts 335°
2026-04-18 07:09 -33.00838 -71.16725 20657 ft 352 kts 335°
2026-04-18 07:09 -32.98480 -71.17640 21156 ft 353 kts 335°
2026-04-18 07:10 -32.96128 -71.18550 21564 ft 357 kts 335°
2026-04-18 07:10 -32.93771 -71.19481 22003 ft 358 kts 334°
2026-04-18 07:10 -32.91414 -71.20482 22403 ft 360 kts 332°
2026-04-18 07:10 -32.89291 -71.21423 22749 ft 362 kts 332°
2026-04-18 07:11 -32.87247 -71.22339 23096 ft 364 kts 332°
2026-04-18 07:11 -32.84868 -71.23405 23478 ft 366 kts 332°
2026-04-18 07:11 -32.82486 -71.24464 23911 ft 367 kts 332°
2026-04-18 07:11 -32.80102 -71.25519 24346 ft 368 kts 332°
2026-04-18 07:12 -32.77670 -71.26591 24659 ft 372 kts 332°
2026-04-18 07:12 -32.75240 -71.27662 25078 ft 373 kts 332°
2026-04-18 07:12 -32.72823 -71.28722 25467 ft 375 kts 331°
2026-04-18 07:12 -32.70340 -71.29811 25823 ft 377 kts 332°
2026-04-18 07:13 -32.67878 -71.30889 26214 ft 378 kts 331°
2026-04-18 07:13 -32.65437 -71.31956 26597 ft 379 kts 331°
2026-04-18 07:13 -32.62922 -71.33055 26915 ft 382 kts 331°
2026-04-18 07:13 -32.60429 -71.34144 27287 ft 383 kts 331°
2026-04-18 07:14 -32.57925 -71.35235 27635 ft 385 kts 331°
2026-04-18 07:14 -32.55405 -71.36337 27952 ft 386 kts 330°
2026-04-18 07:14 -32.52886 -71.37434 28268 ft 388 kts 331°
2026-04-18 07:14 -32.50345 -71.38541 28551 ft 390 kts 331°
2026-04-18 07:15 -32.47790 -71.39656 28832 ft 393 kts 331°
2026-04-18 07:15 -32.45227 -71.40771 29158 ft 394 kts 331°
2026-04-18 07:15 -32.42653 -71.41890 29482 ft 395 kts 331°
2026-04-18 07:15 -32.40066 -71.43014 29771 ft 396 kts 331°
2026-04-18 07:16 -32.37467 -71.44146 29904 ft 401 kts 330°
2026-04-18 07:16 -32.34854 -71.45282 30197 ft 402 kts 331°
2026-04-18 07:16 -32.32223 -71.46422 30502 ft 403 kts 330°
2026-04-18 07:16 -32.29583 -71.47568 30678 ft 406 kts 331°
2026-04-18 07:17 -32.26934 -71.48715 30953 ft 407 kts 331°
2026-04-18 07:17 -32.24260 -71.49876 31135 ft 410 kts 331°
2026-04-18 07:17 -32.21579 -71.51035 31430 ft 411 kts 331°
2026-04-18 07:17 -32.18887 -71.52200 31629 ft 413 kts 331°
2026-04-18 07:18 -32.16177 -71.53371 31865 ft 414 kts 331°
2026-04-18 07:18 -32.13465 -71.54545 31975 ft 416 kts 331°
2026-04-18 07:18 -32.08022 -71.56893 31985 ft 416 kts 331°
2026-04-18 07:19 -32.02591 -71.59229 31982 ft 413 kts 331°
2026-04-18 07:19 -31.97198 -71.61552 31981 ft 415 kts 331°
2026-04-18 07:20 -31.91755 -71.63895 31976 ft 416 kts 332°
2026-04-18 07:20 -31.86332 -71.66215 31953 ft 411 kts 332°
2026-04-18 07:21 -31.80886 -71.68553 31974 ft 417 kts 332°
2026-04-18 07:21 -31.75458 -71.70886 31972 ft 416 kts 332°
2026-04-18 07:22 -31.70046 -71.73203 31966 ft 415 kts 332°
2026-04-18 07:22 -31.64573 -71.75545 31968 ft 417 kts 332°
2026-04-18 07:23 -31.59133 -71.77865 31965 ft 416 kts 332°
2026-04-18 07:23 -31.53689 -71.80183 31966 ft 417 kts 333°
2026-04-18 07:24 -31.48223 -71.82507 31970 ft 416 kts 332°
2026-04-18 07:24 -31.42796 -71.84816 31966 ft 419 kts 333°
2026-04-18 07:25 -31.37304 -71.87148 31966 ft 417 kts 333°
2026-04-18 07:25 -31.31868 -71.89449 31968 ft 416 kts 333°
2026-04-18 07:26 -31.26408 -71.91762 31967 ft 418 kts 333°
2026-04-18 07:26 -31.20923 -71.94082 31971 ft 418 kts 333°
2026-04-18 07:27 -31.15459 -71.96390 31957 ft 417 kts 333°
2026-04-18 07:27 -31.09969 -71.98708 31967 ft 420 kts 333°
2026-04-18 07:28 -31.04478 -72.01019 31965 ft 418 kts 333°
2026-04-18 07:28 -30.99023 -72.03315 31964 ft 418 kts 333°
2026-04-18 07:29 -30.93536 -72.05620 31960 ft 418 kts 333°
2026-04-18 07:29 -30.88059 -72.07922 31972 ft 418 kts 333°
2026-04-18 07:30 -30.82597 -72.10210 31969 ft 418 kts 333°
2026-04-18 07:30 -30.77083 -72.12520 31971 ft 420 kts 333°
2026-04-18 07:31 -30.71577 -72.14825 31966 ft 421 kts 334°
2026-04-18 07:31 -30.66087 -72.17117 31979 ft 420 kts 333°
2026-04-18 07:32 -30.60592 -72.19409 31969 ft 420 kts 333°
2026-04-18 07:32 -30.55088 -72.21691 31962 ft 420 kts 333°
2026-04-18 07:33 -30.49599 -72.23977 31969 ft 420 kts 333°
2026-04-18 07:33 -30.44078 -72.26279 31960 ft 420 kts 334°
2026-04-18 07:34 -30.38586 -72.28565 31967 ft 421 kts 334°
2026-04-18 07:34 -30.33049 -72.30864 31967 ft 420 kts 334°
2026-04-18 07:35 -30.27577 -72.33129 31973 ft 421 kts 334°
2026-04-18 07:35 -30.22040 -72.35422 31966 ft 421 kts 334°
2026-04-18 07:36 -30.16536 -72.37700 31971 ft 423 kts 334°
2026-04-18 07:36 -30.10981 -72.39992 31979 ft 423 kts 334°
2026-04-18 07:37 -30.05466 -72.42266 31973 ft 421 kts 334°
2026-04-18 07:37 -29.99941 -72.44543 31976 ft 423 kts 334°
2026-04-18 07:38 -29.94396 -72.46824 31973 ft 421 kts 334°
2026-04-18 07:38 -29.88888 -72.49086 31977 ft 420 kts 334°
2026-04-18 07:39 -29.83359 -72.51356 31977 ft 421 kts 334°
2026-04-18 07:39 -29.77835 -72.53621 31977 ft 420 kts 334°
2026-04-18 07:40 -29.72319 -72.55881 31980 ft 421 kts 334°
2026-04-18 07:40 -29.66811 -72.58134 31979 ft 421 kts 335°
2026-04-18 07:41 -29.61281 -72.60393 31983 ft 420 kts 334°
2026-04-18 07:41 -29.55776 -72.62638 31977 ft 421 kts 335°
2026-04-18 07:42 -29.50264 -72.64886 31983 ft 421 kts 335°
2026-04-18 07:42 -29.44701 -72.67152 31978 ft 422 kts 335°
2026-04-18 07:43 -29.39168 -72.69402 31982 ft 420 kts 335°
2026-04-18 07:43 -29.33663 -72.71639 31980 ft 422 kts 335°
2026-04-18 07:44 -29.28113 -72.73892 31986 ft 423 kts 335°
2026-04-18 07:44 -29.22582 -72.76131 31979 ft 421 kts 335°
2026-04-18 07:45 -29.17045 -72.78373 31986 ft 423 kts 335°
2026-04-18 07:45 -29.11499 -72.80614 31983 ft 421 kts 336°
2026-04-18 07:46 -29.05955 -72.82855 31985 ft 424 kts 336°
2026-04-18 07:46 -29.00379 -72.85105 31986 ft 423 kts 336°
2026-04-18 07:47 -28.94840 -72.87336 31986 ft 423 kts 336°
2026-04-18 07:47 -28.89318 -72.89558 31978 ft 423 kts 336°
2026-04-18 07:48 -28.83741 -72.91802 31987 ft 423 kts 336°
2026-04-18 07:48 -28.78195 -72.94030 31980 ft 423 kts 336°
2026-04-18 07:49 -28.72617 -72.96268 31979 ft 424 kts 336°
2026-04-18 07:49 -28.67081 -72.98484 31983 ft 423 kts 336°
2026-04-18 07:50 -28.61535 -73.00706 31980 ft 424 kts 336°
2026-04-18 07:50 -28.55933 -73.02947 31984 ft 425 kts 337°
2026-04-18 07:51 -28.50364 -73.05168 31974 ft 424 kts 337°
2026-04-18 07:51 -28.44785 -73.07392 31973 ft 424 kts 336°
2026-04-18 07:52 -28.39236 -73.09604 31970 ft 425 kts 336°
2026-04-18 07:52 -28.33623 -73.11839 31980 ft 424 kts 336°
2026-04-18 07:53 -28.28065 -73.14049 31968 ft 425 kts 337°
2026-04-18 07:53 -28.22482 -73.16267 31979 ft 427 kts 337°
2026-04-18 07:54 -28.16869 -73.18490 31972 ft 423 kts 337°
2026-04-18 07:54 -28.11304 -73.20695 31975 ft 426 kts 337°
2026-04-18 07:55 -28.05698 -73.22916 31971 ft 426 kts 337°
2026-04-18 07:55 -28.00101 -73.25126 31973 ft 425 kts 337°
2026-04-18 07:56 -27.94483 -73.27347 31969 ft 428 kts 338°
2026-04-18 07:56 -27.88858 -73.29565 31969 ft 426 kts 337°
2026-04-18 07:57 -27.83277 -73.31764 31976 ft 427 kts 338°
2026-04-18 07:57 -27.77669 -73.33971 31972 ft 427 kts 338°
2026-04-18 07:58 -27.69144 -73.36952 31969 ft 429 kts 341°
2026-04-18 07:59 -27.63393 -73.38837 31979 ft 428 kts 341°
2026-04-18 07:59 -27.57712 -73.40710 31981 ft 428 kts 340°
2026-04-18 08:00 -27.51955 -73.42627 31978 ft 429 kts 341°
2026-04-18 08:00 -27.46247 -73.44534 31978 ft 427 kts 341°
2026-04-18 08:01 -27.40498 -73.46458 31978 ft 430 kts 341°
2026-04-18 08:01 -27.34787 -73.48369 31975 ft 427 kts 341°
2026-04-18 08:02 -27.29075 -73.50279 31967 ft 429 kts 341°
2026-04-18 08:02 -27.23336 -73.52198 31977 ft 429 kts 341°
2026-04-18 08:03 -27.17613 -73.54107 31979 ft 428 kts 341°
2026-04-18 08:03 -27.11919 -73.56005 31977 ft 430 kts 341°
2026-04-18 08:04 -27.06153 -73.57925 31976 ft 430 kts 342°
2026-04-18 08:04 -27.00405 -73.59837 31979 ft 430 kts 341°
2026-04-18 08:05 -26.94672 -73.61742 31977 ft 431 kts 342°
2026-04-18 08:05 -26.88931 -73.63648 31979 ft 430 kts 342°
2026-04-18 08:06 -26.83177 -73.65556 31982 ft 431 kts 342°
2026-04-18 08:06 -26.77398 -73.67471 31981 ft 431 kts 343°
2026-04-18 08:07 -26.71674 -73.69366 31977 ft 429 kts 343°
2026-04-18 08:07 -26.65933 -73.71262 31985 ft 431 kts 343°
2026-04-18 08:08 -26.60174 -73.73162 31979 ft 431 kts 343°
2026-04-18 08:08 -26.54453 -73.75049 31981 ft 430 kts 343°
2026-04-18 08:09 -26.48699 -73.76945 31986 ft 430 kts 343°
2026-04-18 08:09 -26.42911 -73.78851 31984 ft 432 kts 343°
2026-04-18 08:10 -26.37180 -73.80736 31985 ft 430 kts 343°
2026-04-18 08:10 -26.31393 -73.82636 31985 ft 432 kts 343°
2026-04-18 08:11 -26.25661 -73.84517 31981 ft 430 kts 343°
2026-04-18 08:11 -26.19902 -73.86404 31981 ft 431 kts 343°
2026-04-18 08:12 -26.14129 -73.88294 31986 ft 431 kts 343°
2026-04-18 08:12 -26.08360 -73.90181 31987 ft 432 kts 343°
2026-04-18 08:13 -26.02572 -73.92072 31986 ft 432 kts 343°
2026-04-18 08:13 -25.96833 -73.93945 31983 ft 432 kts 343°
2026-04-18 08:14 -25.91037 -73.95835 31988 ft 431 kts 343°
2026-04-18 08:14 -25.85301 -73.97703 31987 ft 431 kts 343°
2026-04-18 08:15 -25.79508 -73.99589 31987 ft 432 kts 343°
2026-04-18 08:15 -25.73761 -74.01457 31986 ft 431 kts 343°
2026-04-18 08:16 -25.67970 -74.03338 31989 ft 433 kts 343°
2026-04-18 08:16 -25.62186 -74.05215 31987 ft 431 kts 343°
2026-04-18 08:17 -25.56422 -74.07083 31989 ft 432 kts 343°
2026-04-18 08:17 -25.50674 -74.08944 31988 ft 432 kts 343°
2026-04-18 08:18 -25.44889 -74.10815 31988 ft 432 kts 343°
2026-04-18 08:18 -25.39118 -74.12679 31991 ft 432 kts 343°
2026-04-18 08:19 -25.33347 -74.14541 31985 ft 432 kts 343°
2026-04-18 08:19 -25.27559 -74.16408 31990 ft 432 kts 343°
2026-04-18 08:20 -25.21797 -74.18265 31984 ft 431 kts 343°
2026-04-18 08:20 -25.16012 -74.20128 31992 ft 432 kts 343°
2026-04-18 08:21 -25.10262 -74.21976 31988 ft 431 kts 343°
2026-04-18 08:21 -25.04468 -74.23837 31988 ft 432 kts 343°
2026-04-18 08:22 -24.98696 -74.25690 31989 ft 430 kts 343°
2026-04-18 08:22 -24.92972 -74.27525 31993 ft 429 kts 343°
2026-04-18 08:23 -24.87230 -74.29366 31971 ft 431 kts 343°
2026-04-18 08:23 -24.81496 -74.31199 31974 ft 428 kts 343°
2026-04-18 08:24 -24.75758 -74.33031 31978 ft 426 kts 343°
2026-04-18 08:24 -24.70072 -74.34847 31982 ft 425 kts 343°
2026-04-18 08:25 -24.64324 -74.36682 31980 ft 429 kts 343°
2026-04-18 08:25 -24.58629 -74.38496 31968 ft 425 kts 343°
2026-04-18 08:26 -24.52928 -74.40311 32000 ft 427 kts 343°
2026-04-18 08:26 -24.47219 -74.42128 31968 ft 427 kts 343°
2026-04-18 08:27 -24.41518 -74.43939 31991 ft 425 kts 342°
2026-04-18 08:27 -24.35855 -74.45738 31989 ft 425 kts 343°
2026-04-18 08:28 -24.30141 -74.47553 31985 ft 425 kts 342°
2026-04-18 08:28 -24.24494 -74.49342 31975 ft 423 kts 342°
2026-04-18 08:29 -24.18794 -74.51168 32004 ft 426 kts 342°
2026-04-18 08:29 -24.13127 -74.52988 31990 ft 425 kts 342°
2026-04-18 08:30 -24.07438 -74.54809 31997 ft 424 kts 342°
2026-04-18 08:30 -24.01760 -74.56627 31991 ft 426 kts 342°
2026-04-18 08:31 -23.96076 -74.58442 31951 ft 424 kts 342°
2026-04-18 08:31 -23.90383 -74.60259 31958 ft 425 kts 342°
2026-04-18 08:32 -23.84723 -74.62064 31968 ft 424 kts 341°
2026-04-18 08:32 -23.79049 -74.63872 31978 ft 423 kts 342°
2026-04-18 08:33 -23.73411 -74.65667 32005 ft 423 kts 342°
2026-04-18 08:33 -23.67773 -74.67461 31971 ft 421 kts 342°
2026-04-18 08:34 -23.62135 -74.69251 31980 ft 419 kts 341°
2026-04-18 08:34 -23.56508 -74.71038 31973 ft 421 kts 342°
2026-04-18 08:35 -23.50910 -74.72813 32003 ft 419 kts 342°
2026-04-18 08:35 -23.45284 -74.74596 31982 ft 420 kts 341°
2026-04-18 08:36 -23.39667 -74.76372 31983 ft 417 kts 341°
2026-04-18 08:36 -23.34079 -74.78140 31984 ft 416 kts 341°
2026-04-18 08:37 -23.28496 -74.79905 31989 ft 417 kts 341°
2026-04-18 08:37 -23.22918 -74.81668 32003 ft 419 kts 341°
2026-04-18 08:38 -23.17309 -74.83435 31990 ft 416 kts 341°
2026-04-18 08:38 -23.11758 -74.85184 31970 ft 415 kts 341°
2026-04-18 08:39 -23.06163 -74.86948 31957 ft 420 kts 341°
2026-04-18 08:39 -23.00594 -74.88699 31969 ft 416 kts 340°
2026-04-18 08:40 -22.95040 -74.90446 31981 ft 418 kts 341°
2026-04-18 08:40 -22.89451 -74.92202 31983 ft 416 kts 341°
2026-04-18 08:41 -22.83876 -74.93951 31988 ft 414 kts 341°
2026-04-18 08:41 -22.78308 -74.95696 31988 ft 416 kts 341°
2026-04-18 08:42 -22.72771 -74.97430 31977 ft 411 kts 340°
2026-04-18 08:42 -22.67294 -74.99144 31990 ft 412 kts 340°
2026-04-18 08:43 -22.61743 -75.00884 31986 ft 415 kts 341°
2026-04-18 08:43 -22.56256 -75.02598 31990 ft 410 kts 340°
2026-04-18 08:44 -22.50750 -75.04318 31997 ft 412 kts 341°
2026-04-18 08:44 -22.45207 -75.06049 31979 ft 412 kts 340°
2026-04-18 08:45 -22.39742 -75.07748 31981 ft 407 kts 340°
2026-04-18 08:45 -22.34304 -75.09442 31994 ft 406 kts 340°
2026-04-18 08:46 -22.28843 -75.11141 31985 ft 405 kts 340°
2026-04-18 08:46 -22.23462 -75.12815 31997 ft 404 kts 340°
2026-04-18 08:47 -22.18018 -75.14510 31979 ft 403 kts 340°
2026-04-18 08:47 -22.12627 -75.16183 31992 ft 405 kts 340°
2026-04-18 08:48 -22.07184 -75.17872 31973 ft 406 kts 340°
2026-04-18 08:48 -22.01802 -75.19537 31988 ft 403 kts 340°
2026-04-18 08:49 -21.96389 -75.21214 31981 ft 403 kts 340°
2026-04-18 08:49 -21.91014 -75.22876 31977 ft 402 kts 340°
2026-04-18 08:50 -21.85625 -75.24545 31983 ft 400 kts 340°
2026-04-18 08:50 -21.80262 -75.26202 31982 ft 401 kts 339°
2026-04-18 08:51 -21.74876 -75.27866 31974 ft 402 kts 340°
2026-04-18 08:51 -21.69503 -75.29522 31976 ft 399 kts 339°
2026-04-18 08:52 -21.64162 -75.31168 31964 ft 400 kts 340°
2026-04-18 08:52 -21.58789 -75.32823 31993 ft 400 kts 340°
2026-04-18 08:53 -21.53422 -75.34476 31981 ft 401 kts 340°
2026-04-18 08:53 -21.48060 -75.36124 31978 ft 400 kts 340°
2026-04-18 08:54 -21.42720 -75.37766 31977 ft 399 kts 340°
2026-04-18 08:54 -21.37353 -75.39413 31972 ft 398 kts 340°
2026-04-18 08:55 -21.32021 -75.41049 31960 ft 398 kts 339°
2026-04-18 08:55 -21.26699 -75.42680 31973 ft 398 kts 339°
2026-04-18 08:56 -21.21376 -75.44311 31985 ft 398 kts 340°
2026-04-18 08:56 -21.16030 -75.45945 32004 ft 397 kts 339°
2026-04-18 08:57 -21.08036 -75.48391 31991 ft 398 kts 340°
2026-04-18 08:57 -21.02681 -75.50026 31951 ft 399 kts 339°
2026-04-18 08:58 -20.97360 -75.51650 31981 ft 397 kts 339°
2026-04-18 08:58 -20.92024 -75.53278 31991 ft 397 kts 339°
2026-04-18 08:59 -20.86684 -75.54905 31975 ft 400 kts 339°
2026-04-18 08:59 -20.81342 -75.56533 31974 ft 398 kts 339°
2026-04-18 09:00 -20.76032 -75.58149 31972 ft 399 kts 339°
2026-04-18 09:00 -20.70676 -75.59779 31973 ft 400 kts 339°
2026-04-18 09:01 -20.65285 -75.61416 31976 ft 400 kts 339°
2026-04-18 09:01 -20.59951 -75.63034 31978 ft 399 kts 339°
2026-04-18 09:02 -20.54575 -75.64666 31971 ft 401 kts 339°
2026-04-18 09:02 -20.49214 -75.66291 31974 ft 399 kts 340°
2026-04-18 09:03 -20.43858 -75.67915 31978 ft 401 kts 339°
2026-04-18 09:03 -20.38495 -75.69538 31967 ft 400 kts 340°
2026-04-18 09:04 -20.33088 -75.71175 31971 ft 403 kts 340°
2026-04-18 09:04 -20.27686 -75.72808 31972 ft 401 kts 340°
2026-04-18 09:05 -20.22280 -75.74441 31972 ft 401 kts 340°
2026-04-18 09:05 -20.16893 -75.76068 31964 ft 403 kts 340°
2026-04-18 09:06 -20.11493 -75.77697 31970 ft 403 kts 340°
2026-04-18 09:06 -20.06100 -75.79322 31966 ft 404 kts 340°
2026-04-18 09:07 -20.00689 -75.80950 31966 ft 401 kts 340°
2026-04-18 09:07 -19.95307 -75.82571 31964 ft 403 kts 340°
2026-04-18 09:08 -19.89910 -75.84195 31967 ft 403 kts 340°
2026-04-18 09:08 -19.84514 -75.85816 31970 ft 402 kts 340°
2026-04-18 09:09 -19.79087 -75.87447 31967 ft 402 kts 340°
2026-04-18 09:09 -19.73704 -75.89064 31963 ft 402 kts 340°
2026-04-18 09:10 -19.68314 -75.90681 31967 ft 404 kts 340°
2026-04-18 09:10 -19.62880 -75.92309 31965 ft 403 kts 340°
2026-04-18 09:11 -19.57473 -75.93926 31965 ft 402 kts 340°
2026-04-18 09:11 -19.52069 -75.95544 31966 ft 404 kts 340°
2026-04-18 09:12 -19.46659 -75.97165 31963 ft 404 kts 340°
2026-04-18 09:12 -19.41261 -75.98778 31968 ft 404 kts 340°
2026-04-18 09:13 -19.35840 -76.00397 31971 ft 404 kts 340°
2026-04-18 09:13 -19.30450 -76.02006 31963 ft 402 kts 340°
2026-04-18 09:14 -19.25036 -76.03622 31968 ft 404 kts 340°
2026-04-18 09:14 -19.19596 -76.05244 31963 ft 404 kts 340°
2026-04-18 09:15 -19.14179 -76.06857 31968 ft 403 kts 340°
2026-04-18 09:15 -19.08757 -76.08469 31971 ft 404 kts 339°
2026-04-18 09:16 -19.03338 -76.10080 31963 ft 405 kts 340°
2026-04-18 09:16 -18.97910 -76.11693 31964 ft 404 kts 339°
2026-04-18 09:17 -18.92509 -76.13298 31966 ft 404 kts 340°
2026-04-18 09:17 -18.87057 -76.14918 31961 ft 406 kts 340°
2026-04-18 09:18 -18.81619 -76.16530 31965 ft 404 kts 340°
2026-04-18 09:18 -18.76203 -76.18136 31961 ft 405 kts 340°
2026-04-18 09:19 -18.70764 -76.19749 31965 ft 406 kts 340°
2026-04-18 09:19 -18.65332 -76.21355 31961 ft 405 kts 340°
2026-04-18 09:20 -18.59893 -76.22965 31962 ft 405 kts 340°
2026-04-18 09:20 -18.54455 -76.24572 31963 ft 406 kts 340°
2026-04-18 09:21 -18.48988 -76.26188 31956 ft 407 kts 340°
2026-04-18 09:21 -18.43549 -76.27794 31956 ft 406 kts 340°
2026-04-18 09:22 -18.38075 -76.29410 31963 ft 406 kts 340°
2026-04-18 09:22 -18.32637 -76.31001 31956 ft 408 kts 340°
2026-04-18 09:23 -18.27138 -76.32543 31955 ft 408 kts 341°
2026-04-18 09:23 -18.21633 -76.34066 31954 ft 408 kts 341°
2026-04-18 09:24 -18.16147 -76.35588 31960 ft 408 kts 341°
2026-04-18 09:24 -18.10665 -76.37114 31957 ft 407 kts 341°
2026-04-18 09:25 -18.05142 -76.38653 31952 ft 408 kts 341°
2026-04-18 09:25 -17.99668 -76.40177 31956 ft 408 kts 341°
2026-04-18 09:26 -17.94178 -76.41705 31950 ft 409 kts 341°
2026-04-18 09:26 -17.88652 -76.43243 31953 ft 409 kts 341°
2026-04-18 09:27 -17.83145 -76.44775 31956 ft 407 kts 341°
2026-04-18 09:27 -17.77659 -76.46298 31959 ft 407 kts 341°
2026-04-18 09:28 -17.72156 -76.47829 31957 ft 409 kts 341°
2026-04-18 09:28 -17.66647 -76.49358 31953 ft 409 kts 341°
2026-04-18 09:29 -17.61102 -76.50897 32310 ft 411 kts 341°
2026-04-18 09:29 -17.58327 -76.51666 32569 ft 413 kts 341°
2026-04-18 09:29 -17.55556 -76.52433 32896 ft 413 kts 341°
2026-04-18 09:30 -17.52773 -76.53204 33126 ft 416 kts 341°
2026-04-18 09:30 -17.49973 -76.53979 33422 ft 417 kts 341°
2026-04-18 09:30 -17.47167 -76.54756 33661 ft 419 kts 341°
2026-04-18 09:30 -17.44299 -76.55550 33876 ft 421 kts 341°
2026-04-18 09:31 -17.41472 -76.56333 34156 ft 422 kts 341°
2026-04-18 09:31 -17.38634 -76.57117 34595 ft 419 kts 341°
2026-04-18 09:31 -17.35820 -76.57893 35019 ft 417 kts 341°
2026-04-18 09:31 -17.33000 -76.58672 35292 ft 417 kts 341°
2026-04-18 09:32 -17.30179 -76.59451 35512 ft 419 kts 341°
2026-04-18 09:32 -17.27362 -76.60229 35841 ft 417 kts 341°
2026-04-18 09:32 -17.24557 -76.61004 35948 ft 419 kts 341°
2026-04-18 09:32 -17.21727 -76.61786 35948 ft 421 kts 341°
2026-04-18 09:33 -17.16079 -76.63341 35950 ft 417 kts 341°
2026-04-18 09:33 -17.10432 -76.64899 35945 ft 419 kts 341°
2026-04-18 09:34 -17.04780 -76.66456 35946 ft 419 kts 341°
2026-04-18 09:34 -16.99130 -76.68010 35948 ft 418 kts 341°
2026-04-18 09:35 -16.93521 -76.69555 35945 ft 419 kts 342°
2026-04-18 09:35 -16.87854 -76.71115 35943 ft 420 kts 342°
2026-04-18 09:36 -16.82214 -76.72665 35938 ft 420 kts 342°
2026-04-18 09:36 -16.76528 -76.74228 35938 ft 420 kts 342°
2026-04-18 09:37 -16.70877 -76.75779 35945 ft 419 kts 342°
2026-04-18 09:37 -16.65233 -76.77328 35942 ft 420 kts 342°
2026-04-18 09:38 -16.59558 -76.78884 35937 ft 421 kts 342°
2026-04-18 09:38 -16.53888 -76.80435 35937 ft 420 kts 342°
2026-04-18 09:39 -16.48205 -76.81992 35934 ft 421 kts 342°
2026-04-18 09:39 -16.42532 -76.83544 35935 ft 420 kts 342°
2026-04-18 09:40 -16.36863 -76.85095 35939 ft 421 kts 342°
2026-04-18 09:40 -16.31193 -76.86645 35925 ft 421 kts 342°
2026-04-18 09:41 -16.25508 -76.88199 35934 ft 422 kts 342°
2026-04-18 09:41 -16.19797 -76.89758 35929 ft 422 kts 342°
2026-04-18 09:42 -16.14116 -76.91308 35935 ft 421 kts 342°
2026-04-18 09:42 -16.08441 -76.92856 35931 ft 421 kts 342°
2026-04-18 09:43 -16.02755 -76.94407 35926 ft 422 kts 342°
2026-04-18 09:43 -15.97059 -76.95959 35924 ft 423 kts 342°
2026-04-18 09:44 -15.91355 -76.97511 35929 ft 421 kts 342°
2026-04-18 09:44 -15.85677 -76.99056 35923 ft 423 kts 342°
2026-04-18 09:45 -15.79978 -77.00606 35928 ft 423 kts 342°
2026-04-18 09:45 -15.74264 -77.02158 35928 ft 421 kts 342°
2026-04-18 09:46 -15.68588 -77.03700 35925 ft 422 kts 342°
2026-04-18 09:46 -15.62884 -77.05250 35920 ft 423 kts 342°
2026-04-18 09:47 -15.57178 -77.06799 35923 ft 424 kts 342°
2026-04-18 09:47 -15.51479 -77.08343 35927 ft 422 kts 342°
2026-04-18 09:48 -15.45796 -77.09883 35926 ft 423 kts 342°
2026-04-18 09:48 -15.40089 -77.11428 35924 ft 423 kts 342°
2026-04-18 09:49 -15.34359 -77.12979 35928 ft 425 kts 343°
2026-04-18 09:49 -15.28660 -77.14523 35928 ft 423 kts 343°
2026-04-18 09:50 -15.22924 -77.16074 35928 ft 424 kts 343°
2026-04-18 09:50 -15.17206 -77.17619 35926 ft 424 kts 343°
2026-04-18 09:51 -15.11481 -77.19166 35927 ft 424 kts 342°
2026-04-18 09:51 -15.05790 -77.20702 35926 ft 424 kts 343°
2026-04-18 09:52 -15.00054 -77.22250 35924 ft 424 kts 343°
2026-04-18 09:52 -14.94316 -77.23797 35926 ft 425 kts 343°
2026-04-18 09:53 -14.88557 -77.25349 35922 ft 423 kts 343°
2026-04-18 09:53 -14.82862 -77.26883 35924 ft 424 kts 343°
2026-04-18 09:54 -14.77154 -77.28419 35925 ft 424 kts 343°
2026-04-18 09:54 -14.71434 -77.29959 35925 ft 423 kts 343°
2026-04-18 09:55 -14.65706 -77.31500 35921 ft 424 kts 343°
2026-04-18 09:55 -14.59974 -77.33041 35918 ft 425 kts 343°
2026-04-18 09:56 -14.54239 -77.34580 35918 ft 424 kts 343°
2026-04-18 09:56 -14.48538 -77.36110 35919 ft 423 kts 343°
2026-04-18 09:57 -14.42808 -77.37646 35920 ft 425 kts 343°
2026-04-18 09:57 -14.37072 -77.39185 35919 ft 424 kts 343°
2026-04-18 09:58 -14.31380 -77.40710 35917 ft 424 kts 343°
2026-04-18 09:58 -14.25642 -77.42254 35914 ft 423 kts 343°
2026-04-18 09:59 -14.19958 -77.43837 35913 ft 423 kts 343°
2026-04-18 10:00 -14.11372 -77.46261 35919 ft 424 kts 343°
2026-04-18 10:00 -14.05670 -77.47865 35914 ft 424 kts 343°
2026-04-18 10:01 -13.99969 -77.49464 35916 ft 425 kts 343°
2026-04-18 10:01 -13.94244 -77.51067 35916 ft 426 kts 343°
2026-04-18 10:02 -13.88520 -77.52670 35917 ft 426 kts 343°
2026-04-18 10:02 -13.82792 -77.54270 35918 ft 426 kts 343°
2026-04-18 10:03 -13.77060 -77.55871 35913 ft 423 kts 343°
2026-04-18 10:03 -13.71339 -77.57469 35918 ft 426 kts 343°
2026-04-18 10:04 -13.65603 -77.59070 35916 ft 425 kts 343°
2026-04-18 10:04 -13.59905 -77.60660 35920 ft 427 kts 343°
2026-04-18 10:05 -13.54153 -77.62264 35918 ft 426 kts 343°
2026-04-18 10:05 -13.48401 -77.63866 35925 ft 427 kts 343°
2026-04-18 10:06 -13.42670 -77.65462 35918 ft 426 kts 344°
2026-04-18 10:06 -13.36924 -77.67062 35921 ft 427 kts 344°
2026-04-18 10:07 -13.31170 -77.68664 35919 ft 427 kts 344°
2026-04-18 10:07 -13.25458 -77.70252 35922 ft 425 kts 344°
2026-04-18 10:08 -13.19680 -77.71859 35916 ft 428 kts 344°
2026-04-18 10:08 -13.13917 -77.73460 35922 ft 428 kts 344°
2026-04-18 10:09 -13.08195 -77.75049 35916 ft 428 kts 344°
2026-04-18 10:09 -13.02430 -77.76649 35919 ft 428 kts 344°
2026-04-18 10:10 -12.96669 -77.78247 35916 ft 429 kts 344°
2026-04-18 10:10 -12.90890 -77.79849 35927 ft 427 kts 344°
2026-04-18 10:11 -12.85110 -77.81451 35916 ft 428 kts 344°
2026-04-18 10:11 -12.79365 -77.83043 35926 ft 428 kts 344°
2026-04-18 10:12 -12.73596 -77.84641 35922 ft 428 kts 344°
2026-04-18 10:12 -12.67859 -77.86229 35916 ft 429 kts 344°
2026-04-18 10:13 -12.62100 -77.87823 35919 ft 428 kts 344°
2026-04-18 10:13 -12.56310 -77.89424 35918 ft 427 kts 344°
2026-04-18 10:14 -12.50577 -77.91009 35927 ft 428 kts 344°
2026-04-18 10:14 -12.44787 -77.92609 35926 ft 426 kts 344°
2026-04-18 10:15 -12.39031 -77.94199 35919 ft 428 kts 344°
2026-04-18 10:15 -12.33285 -77.95785 35925 ft 426 kts 344°
2026-04-18 10:16 -12.27541 -77.97369 35927 ft 427 kts 344°
2026-04-18 10:16 -12.21775 -77.98959 35920 ft 429 kts 344°
2026-04-18 10:17 -12.15984 -78.00555 35920 ft 427 kts 345°
2026-04-18 10:17 -12.10244 -78.02136 35925 ft 428 kts 344°
2026-04-18 10:18 -12.04480 -78.03725 35927 ft 427 kts 344°
2026-04-18 10:18 -11.98727 -78.05308 35924 ft 428 kts 345°
2026-04-18 10:19 -11.92971 -78.06891 35922 ft 427 kts 345°
2026-04-18 10:19 -11.87175 -78.08485 35921 ft 430 kts 345°
2026-04-18 10:20 -11.81430 -78.10065 35919 ft 429 kts 345°
2026-04-18 10:20 -11.75663 -78.11649 35928 ft 427 kts 345°
2026-04-18 10:21 -11.69881 -78.13237 35916 ft 429 kts 345°
2026-04-18 10:21 -11.64058 -78.14835 35921 ft 428 kts 345°
2026-04-18 10:22 -11.58298 -78.16416 35908 ft 429 kts 345°
2026-04-18 10:22 -11.52489 -78.18010 35919 ft 429 kts 345°
2026-04-18 10:23 -11.46715 -78.19595 35920 ft 429 kts 345°
2026-04-18 10:23 -11.40977 -78.21167 35927 ft 428 kts 345°
2026-04-18 10:24 -11.35161 -78.22761 35909 ft 430 kts 345°
2026-04-18 10:24 -11.29386 -78.24342 35905 ft 430 kts 345°
2026-04-18 10:25 -11.23612 -78.25922 35925 ft 429 kts 345°
2026-04-18 10:25 -11.17800 -78.27512 35915 ft 429 kts 345°
2026-04-18 10:26 -11.12030 -78.29089 35899 ft 430 kts 345°
2026-04-18 10:26 -11.06253 -78.30669 35907 ft 430 kts 345°
2026-04-18 10:27 -11.00451 -78.32254 35911 ft 431 kts 345°
2026-04-18 10:27 -10.94650 -78.33839 35923 ft 430 kts 345°
2026-04-18 10:28 -10.88848 -78.35424 35910 ft 431 kts 346°
2026-04-18 10:28 -10.83015 -78.37016 35917 ft 430 kts 346°
2026-04-18 10:29 -10.77219 -78.38597 35910 ft 432 kts 346°
2026-04-18 10:29 -10.71415 -78.40179 35917 ft 430 kts 345°
2026-04-18 10:30 -10.65594 -78.41767 35922 ft 432 kts 346°
2026-04-18 10:30 -10.59792 -78.43349 35919 ft 430 kts 345°
2026-04-18 10:31 -10.53993 -78.44928 35913 ft 433 kts 346°
2026-04-18 10:31 -10.48190 -78.46508 35915 ft 431 kts 346°
2026-04-18 10:32 -10.42338 -78.48101 35919 ft 432 kts 346°
2026-04-18 10:32 -10.36559 -78.49673 35927 ft 431 kts 346°
2026-04-18 10:33 -10.30728 -78.51257 35920 ft 433 kts 346°
2026-04-18 10:33 -10.24899 -78.52842 35923 ft 431 kts 346°
2026-04-18 10:34 -10.19074 -78.54425 35918 ft 432 kts 346°
2026-04-18 10:34 -10.13274 -78.56001 35925 ft 432 kts 346°
2026-04-18 10:35 -10.07453 -78.57582 35925 ft 434 kts 346°
2026-04-18 10:35 -10.01617 -78.59167 35922 ft 433 kts 346°
2026-04-18 10:36 -9.95764 -78.60754 35928 ft 431 kts 346°
2026-04-18 10:36 -9.89963 -78.62328 35939 ft 434 kts 346°
2026-04-18 10:37 -9.84110 -78.63915 35924 ft 432 kts 346°
2026-04-18 10:37 -9.78277 -78.65496 35949 ft 435 kts 346°
2026-04-18 10:38 -9.72400 -78.67088 35932 ft 434 kts 346°
2026-04-18 10:38 -9.66537 -78.68677 35947 ft 435 kts 346°
2026-04-18 10:39 -9.60643 -78.70274 35943 ft 435 kts 346°
2026-04-18 10:39 -9.54817 -78.71851 35936 ft 434 kts 346°
2026-04-18 10:40 -9.48964 -78.73435 35965 ft 436 kts 346°
2026-04-18 10:40 -9.43076 -78.75028 35956 ft 435 kts 346°
2026-04-18 10:41 -9.37217 -78.76613 35940 ft 435 kts 346°
2026-04-18 10:41 -9.31369 -78.78194 35950 ft 436 kts 346°
2026-04-18 10:42 -9.25452 -78.79793 35946 ft 436 kts 346°
2026-04-18 10:42 -9.19595 -78.81377 35961 ft 436 kts 346°
2026-04-18 10:43 -9.13705 -78.82967 35936 ft 438 kts 346°
2026-04-18 10:43 -9.07818 -78.84556 35931 ft 437 kts 346°
2026-04-18 10:44 -9.01920 -78.86148 35969 ft 438 kts 346°
2026-04-18 10:44 -8.95999 -78.87746 35935 ft 437 kts 346°
2026-04-18 10:45 -8.90105 -78.89336 35934 ft 439 kts 346°
2026-04-18 10:45 -8.84169 -78.90936 35929 ft 438 kts 346°
2026-04-18 10:46 -8.78292 -78.92521 35926 ft 438 kts 346°
2026-04-18 10:46 -8.72349 -78.94122 35953 ft 439 kts 346°
2026-04-18 10:47 -8.66469 -78.95706 35939 ft 437 kts 346°
2026-04-18 10:47 -8.60563 -78.97297 35926 ft 437 kts 346°
2026-04-18 10:48 -8.54652 -78.98887 35925 ft 439 kts 346°
2026-04-18 10:48 -8.48742 -79.00478 35925 ft 438 kts 346°
2026-04-18 10:49 -8.42835 -79.02068 35924 ft 437 kts 346°
2026-04-18 10:49 -8.36932 -79.03655 35953 ft 439 kts 346°
2026-04-18 10:50 -8.31018 -79.05245 35945 ft 438 kts 346°
2026-04-18 10:50 -8.25093 -79.06838 35935 ft 438 kts 346°
2026-04-18 10:51 -8.19172 -79.08428 35940 ft 439 kts 346°
2026-04-18 10:51 -8.13290 -79.10008 35940 ft 438 kts 346°
2026-04-18 10:52 -8.07324 -79.11478 35940 ft 438 kts 350°
2026-04-18 10:52 -8.01254 -79.12381 35940 ft 438 kts 353°
2026-04-18 10:53 -7.95226 -79.13081 35940 ft 438 kts 354°
2026-04-18 10:53 -7.89127 -79.13786 35943 ft 438 kts 354°
2026-04-18 10:54 -7.83094 -79.14508 35968 ft 438 kts 353°
2026-04-18 10:54 -7.77030 -79.15256 35952 ft 437 kts 353°
2026-04-18 10:55 -7.70954 -79.16017 36040 ft 437 kts 353°
2026-04-18 10:55 -7.64893 -79.16780 36036 ft 437 kts 353°
2026-04-18 10:56 -7.58821 -79.17546 36035 ft 437 kts 353°
2026-04-18 10:56 -7.52780 -79.18308 36090 ft 437 kts 353°
2026-04-18 10:57 -7.46722 -79.19073 36100 ft 439 kts 353°
2026-04-18 10:57 -7.40649 -79.19839 36166 ft 437 kts 353°
2026-04-18 10:58 -7.34579 -79.20604 36113 ft 438 kts 353°
2026-04-18 10:58 -7.28521 -79.21368 36103 ft 437 kts 353°
2026-04-18 10:59 -7.23171 -79.22042 36107 ft 439 kts 353°
2026-04-18 10:59 -7.18145 -79.22675 36144 ft 438 kts 353°
2026-04-18 11:00 -7.12092 -79.23438 36150 ft 439 kts 353°
2026-04-18 11:00 -7.06024 -79.24202 36186 ft 438 kts 353°
2026-04-18 11:01 -6.99931 -79.24969 36154 ft 438 kts 354°
2026-04-18 11:01 -6.93845 -79.25734 36144 ft 438 kts 353°
2026-04-18 11:02 -6.84733 -79.26881 36153 ft 438 kts 353°
2026-04-18 11:02 -6.78652 -79.27645 36104 ft 438 kts 353°
2026-04-18 11:03 -6.72587 -79.28408 36196 ft 439 kts 354°
2026-04-18 11:03 -6.66461 -79.29179 36135 ft 439 kts 353°
2026-04-18 11:04 -6.60405 -79.29940 36133 ft 439 kts 354°
2026-04-18 11:04 -6.54350 -79.30700 36208 ft 438 kts 354°
2026-04-18 11:05 -6.48242 -79.31467 36191 ft 439 kts 354°
2026-04-18 11:05 -6.42163 -79.32230 36225 ft 439 kts 354°
2026-04-18 11:06 -6.36100 -79.32992 36268 ft 439 kts 354°
2026-04-18 11:06 -6.30002 -79.33758 36332 ft 438 kts 354°
2026-04-18 11:07 -6.23913 -79.34521 36374 ft 440 kts 354°
2026-04-18 11:07 -6.17834 -79.35284 36358 ft 438 kts 354°
2026-04-18 11:08 -6.11783 -79.36043 36316 ft 439 kts 354°
2026-04-18 11:08 -6.05680 -79.36808 36254 ft 439 kts 354°
2026-04-18 11:09 -5.99597 -79.37571 36240 ft 439 kts 354°
2026-04-18 11:09 -5.93535 -79.38330 36248 ft 441 kts 354°
2026-04-18 11:10 -5.87394 -79.39100 36270 ft 439 kts 354°
2026-04-18 11:10 -5.81316 -79.39862 36287 ft 441 kts 354°
2026-04-18 11:11 -5.75211 -79.40627 36311 ft 441 kts 354°
2026-04-18 11:11 -5.69089 -79.41394 36326 ft 440 kts 354°
2026-04-18 11:12 -5.63005 -79.42155 36350 ft 440 kts 354°
2026-04-18 11:12 -5.56906 -79.42918 36360 ft 443 kts 354°
2026-04-18 11:13 -5.50734 -79.43691 36379 ft 442 kts 354°
2026-04-18 11:13 -5.44627 -79.44455 36374 ft 443 kts 354°
2026-04-18 11:14 -5.38482 -79.45224 36352 ft 441 kts 354°
2026-04-18 11:14 -5.32379 -79.45987 36340 ft 444 kts 354°
2026-04-18 11:15 -5.26234 -79.46755 36324 ft 442 kts 354°
2026-04-18 11:15 -5.20082 -79.47525 36336 ft 443 kts 354°
2026-04-18 11:16 -5.13923 -79.48294 36371 ft 445 kts 354°
2026-04-18 11:16 -5.07730 -79.49068 36402 ft 445 kts 354°
2026-04-18 11:17 -5.01574 -79.49836 36438 ft 446 kts 354°
2026-04-18 11:17 -4.95400 -79.50608 36449 ft 444 kts 354°
2026-04-18 11:18 -4.89232 -79.51379 36433 ft 445 kts 354°
2026-04-18 11:18 -4.83047 -79.52152 36413 ft 445 kts 354°
2026-04-18 11:19 -4.76895 -79.52921 36392 ft 445 kts 354°
2026-04-18 11:19 -4.70716 -79.53691 36346 ft 445 kts 354°
2026-04-18 11:20 -4.64535 -79.54462 36280 ft 446 kts 354°
2026-04-18 11:20 -4.58393 -79.55229 36223 ft 445 kts 354°
2026-04-18 11:21 -4.52202 -79.56001 36169 ft 446 kts 354°
2026-04-18 11:21 -4.46560 -79.56712 36156 ft 446 kts 354°
2026-04-18 11:22 -4.40397 -79.57503 36173 ft 446 kts 354°
2026-04-18 11:22 -4.34217 -79.58301 36185 ft 446 kts 354°
2026-04-18 11:23 -4.28026 -79.59098 36200 ft 448 kts 354°
2026-04-18 11:23 -4.21854 -79.59892 36214 ft 446 kts 354°
2026-04-18 11:24 -4.15665 -79.60686 36199 ft 446 kts 354°
2026-04-18 11:24 -4.09494 -79.61479 36189 ft 446 kts 354°
2026-04-18 11:25 -4.03303 -79.62273 36168 ft 447 kts 354°
2026-04-18 11:25 -3.97118 -79.63067 36158 ft 446 kts 354°
2026-04-18 11:26 -3.90916 -79.63863 36151 ft 447 kts 354°
2026-04-18 11:26 -3.84679 -79.64663 36122 ft 447 kts 354°
2026-04-18 11:27 -3.78520 -79.65455 36150 ft 447 kts 354°
2026-04-18 11:27 -3.72505 -79.66228 36118 ft 446 kts 354°
2026-04-18 11:28 -3.66336 -79.67022 36155 ft 447 kts 354°
2026-04-18 11:28 -3.63225 -79.67420 36032 ft 446 kts 354°
2026-04-18 11:28 -3.60146 -79.67816 35621 ft 441 kts 354°
2026-04-18 11:29 -3.57135 -79.68203 35035 ft 438 kts 354°
2026-04-18 11:29 -3.54101 -79.68591 34363 ft 438 kts 354°
2026-04-18 11:29 -3.51094 -79.68975 33634 ft 438 kts 354°
2026-04-18 11:29 -3.48565 -79.69297 32972 ft 439 kts 354°
2026-04-18 11:30 -3.47184 -79.69473 32644 ft 440 kts 354°
2026-04-18 11:30 -3.44146 -79.69861 31902 ft 441 kts 354°
2026-04-18 11:30 -3.41059 -79.70255 31334 ft 445 kts 353°
2026-04-18 11:30 -3.37970 -79.70649 30688 ft 453 kts 353°
2026-04-18 11:31 -3.34849 -79.71048 30040 ft 452 kts 353°
2026-04-18 11:31 -3.31715 -79.71449 29363 ft 451 kts 353°
2026-04-18 11:31 -3.28591 -79.71850 28689 ft 449 kts 353°
2026-04-18 11:31 -3.25520 -79.72243 28053 ft 448 kts 353°
2026-04-18 11:32 -3.22414 -79.72640 27412 ft 446 kts 353°
2026-04-18 11:32 -3.19331 -79.73035 26766 ft 445 kts 353°
2026-04-18 11:32 -3.16233 -79.73431 26093 ft 444 kts 352°
2026-04-18 11:32 -3.13165 -79.73824 25454 ft 442 kts 352°
2026-04-18 11:33 -3.10154 -79.74210 24796 ft 441 kts 352°
2026-04-18 11:33 -3.07109 -79.74599 24150 ft 439 kts 352°
2026-04-18 11:33 -3.04074 -79.74987 23479 ft 438 kts 351°
2026-04-18 11:33 -3.01049 -79.75375 22817 ft 436 kts 351°
2026-04-18 11:34 -2.98041 -79.75759 22165 ft 434 kts 351°
2026-04-18 11:34 -2.95044 -79.76144 21524 ft 432 kts 351°
2026-04-18 11:34 -2.92060 -79.76527 20927 ft 430 kts 351°
2026-04-18 11:34 -2.89078 -79.76909 20224 ft 429 kts 351°
2026-04-18 11:35 -2.86108 -79.77290 19600 ft 427 kts 351°
2026-04-18 11:35 -2.83166 -79.77666 18890 ft 425 kts 351°
2026-04-18 11:35 -2.80231 -79.78042 18256 ft 421 kts 351°
2026-04-18 11:35 -2.77319 -79.78378 17711 ft 419 kts 353°
2026-04-18 11:36 -2.74409 -79.78629 17067 ft 418 kts 354°
2026-04-18 11:36 -2.71495 -79.78833 16428 ft 416 kts 355°
2026-04-18 11:36 -2.68631 -79.79018 15791 ft 416 kts 355°
2026-04-18 11:36 -2.65739 -79.79205 15059 ft 413 kts 355°
2026-04-18 11:37 -2.62868 -79.79397 14473 ft 410 kts 355°
2026-04-18 11:37 -2.60017 -79.79594 13861 ft 406 kts 355°
2026-04-18 11:37 -2.57216 -79.79795 13216 ft 403 kts 355°
2026-04-18 11:37 -2.54410 -79.80000 12591 ft 400 kts 355°
2026-04-18 11:38 -2.51664 -79.80204 11989 ft 397 kts 354°
2026-04-18 11:38 -2.48901 -79.80411 11320 ft 394 kts 355°
2026-04-18 11:38 -2.46156 -79.80617 10720 ft 389 kts 355°
2026-04-18 11:38 -2.43498 -79.80817 10310 ft 380 kts 355°
2026-04-18 11:39 -2.40886 -79.81012 10175 ft 363 kts 355°
2026-04-18 11:39 -2.38431 -79.81194 9985 ft 348 kts 355°
2026-04-18 11:39 -2.36021 -79.81374 9633 ft 344 kts 355°
2026-04-18 11:39 -2.33648 -79.81553 9113 ft 341 kts 355°
2026-04-18 11:40 -2.31318 -79.81729 8681 ft 326 kts 355°
2026-04-18 11:40 -2.29108 -79.81896 8279 ft 312 kts 355°
2026-04-18 11:40 -2.26963 -79.82059 7884 ft 299 kts 355°
2026-04-18 11:40 -2.24935 -79.82213 7512 ft 288 kts 355°
2026-04-18 11:41 -2.22932 -79.82298 7130 ft 284 kts
2026-04-18 11:41 -2.21009 -79.81925 6751 ft 282 kts 23°
2026-04-18 11:41 -2.19291 -79.81022 6412 ft 279 kts 32°
2026-04-18 11:41 -2.17644 -79.79967 6064 ft 278 kts 34°
2026-04-18 11:42 -2.16023 -79.78941 5723 ft 276 kts 32°
2026-04-18 11:42 -2.14363 -79.77942 5373 ft 275 kts 31°
2026-04-18 11:42 -2.12709 -79.76983 5031 ft 273 kts 31°
2026-04-18 11:42 -2.11077 -79.76051 4735 ft 270 kts 30°
2026-04-18 11:43 -2.09443 -79.75126 4503 ft 264 kts 28°
2026-04-18 11:43 -2.07757 -79.74411 4224 ft 261 kts 14°
2026-04-18 11:43 -2.05969 -79.74425 3958 ft 257 kts 341°
2026-04-18 11:43 -2.04482 -79.75369 3712 ft 253 kts 312°
2026-04-18 11:44 -2.03597 -79.76826 3557 ft 246 kts 291°
2026-04-18 11:44 -2.03117 -79.78463 3285 ft 244 kts 280°
2026-04-18 11:44 -2.03150 -79.80137 3030 ft 238 kts 251°
2026-04-18 11:44 -2.03959 -79.81499 2917 ft 227 kts 224°
2026-04-18 11:45 -2.05239 -79.82468 2356 ft 236 kts 209°
2026-04-18 11:45 -2.06721 -79.83195 1742 ft 237 kts 207°
2026-04-18 11:45 -2.08083 -79.83948 1507 ft 209 kts 213°
2026-04-18 11:45 -2.09235 -79.84665 1285 ft 188 kts 211°
2026-04-18 11:46 -2.10329 -79.85271 1032 ft 170 kts 209°
2026-04-18 11:46 -2.11324 -79.85837 815 ft 153 kts 211°
2026-04-18 11:46 -2.12216 -79.86358 631 ft 148 kts 210°
2026-04-18 11:46 -2.13126 -79.86865 442 ft 146 kts 210°
2026-04-18 11:47 -2.14002 -79.87378 253 ft 143 kts 211°
2026-04-18 11:47 -2.14871 -79.87865 77 ft 142 kts 210°
2026-04-18 11:47 -2.15655 -79.88319 27 ft 101 kts 210°
2026-04-18 11:47 -2.16083 -79.88564 27 ft 51 kts 210°
2026-04-18 11:48 -2.16283 -79.88678 27 ft 20 kts 210°
2026-04-18 11:48 -2.16338 -79.88754 27 ft 0 kts 297°
2026-04-18 11:48 -2.16333 -79.88763 27 ft 6 kts 297°
2026-04-18 11:49 -2.16265 -79.88775 27 ft 17 kts 28°
2026-04-18 11:49 -2.16136 -79.88702 27 ft 24 kts 30°
2026-04-18 11:49 -2.15982 -79.88612 27 ft 25 kts 31°
2026-04-18 11:49 -2.15831 -79.88525 27 ft 22 kts 30°
2026-04-18 11:50 -2.15699 -79.88442 27 ft 23 kts 31°
2026-04-18 11:50 -2.15554 -79.88360 27 ft 23 kts 30°
2026-04-18 11:50 -2.15413 -79.88283 27 ft 23 kts 28°
2026-04-18 11:50 -2.15281 -79.88216 27 ft 18 kts 359°
2026-04-18 11:51 -2.15209 -79.88314 27 ft 18 kts 297°
2026-04-18 11:51 -2.15133 -79.88395 27 ft 16 kts 17°
2026-04-18 11:51 -2.15032 -79.88339 27 ft 16 kts 30°
2026-04-18 11:51 -2.14935 -79.88284 27 ft 15 kts 30°
2026-04-18 11:52 -2.14839 -79.88229 27 ft 15 kts 30°
2026-04-18 11:52 -2.14755 -79.88184 27 ft 3 kts 351°
2026-04-18 11:52 -2.14735 -79.88206 27 ft 6 kts 301°
2026-04-18 11:52 -2.14724 -79.88225 27 ft 0 kts 301°